Weather History for Belize, Belize

Change the Weather History Date:

Saturday, March 15, 2014

  Actual Average Record
Temperature  
Mean Temperature 78 °F -  
Max Temperature 85 °F 86 °F 89 °F (2008)
Min Temperature 71 °F 72 °F 62 °F (1999)
Cooling Degree Days 13    
Growing Degree Days 28 (Base 50)    
Moisture  
Dew Point 73 °F    
Average Humidity 76    
Maximum Humidity 97    
Minimum Humidity 58    
Precipitation  
Precipitation 0.00 in 0.07 in - ()
Sea Level Pressure  
Sea Level Pressure 29.93 in    
Wind  
Wind Speed 4 mph ()    
Max Wind Speed 10 mph    
Max Gust Speed -    
Visibility 8.9 miles    
Events Rain    
Averages and records for this station are not official NWS values.
T = Trace of Precipitation, MM = Missing Value Source: Averaged Metar Reports

Daily Weather History Graph

Daily Weather History Graph

Search for Another Location

Airport:

Trip Planner

Search our weather history database for the weather conditions in past years. The results will help you decide how hot, cold, wet, or windy it might be!

Date:

Astronomy

Mar. 15, 2014 Rise Set
Actual Time 6:01 AM CST 6:03 PM CST
Civil Twilight 5:39 AM CST 6:24 PM CST
Nautical Twilight 5:14 AM CST 6:50 PM CST
Astronomical Twilight 4:49 AM CST 7:15 PM CST
Moon 5:23 PM CST (3/15) 5:08 AM CST (3/15)
Length of Visible Light 12h 45m
Length of Day
12h 01m
Waxing Gibbous, 99% of the Moon is Illuminated
Mar 15
Waxing Gibbous
Mar 16
Full
Mar 23
Last Quarter
Mar 30
New
Apr 7
First Quarter

Hourly Weather History & Observations

Time (CST) Temp. Heat Index Dew Point Humidity Pressure Visibility Wind Dir Wind Speed Gust Speed Precip Events Conditions
12:00 AM 73 °F - 72 °F 94% 29.99 in 12 mi Calm Calm - -   Scattered Clouds
3:00 AM 72 °F - 71 °F 97% 29.94 in 12 mi Calm Calm - - Rain Light Rain Showers
5:00 AM 73.4 °F - 71.6 °F 94% 29.93 in 6.2 mi Calm Calm - N/A   Partly Cloudy
6:00 AM 74 °F - 72 °F 90% 29.95 in 12 mi ESE 3.5 mph - -   Partly Cloudy
6:00 AM 75.2 °F - 71.6 °F 89% 29.95 in 6.2 mi ESE 3.5 mph - N/A   Partly Cloudy
7:00 AM 77.0 °F - 73.4 °F 89% 29.96 in 6.2 mi Calm Calm - N/A   Scattered Clouds
8:00 AM 80.6 °F 86.2 °F 75.2 °F 84% 29.98 in 6.2 mi East 9.2 mph - N/A   Mostly Cloudy
9:00 AM 82 °F - 73 °F 69% 29.99 in 12 mi ESE 5.8 mph - -   Partly Cloudy
9:00 AM 82.4 °F 88.2 °F 73.4 °F 74% 29.98 in 6.2 mi ESE 5.8 mph - N/A   Scattered Clouds
10:00 AM 84.2 °F 90.9 °F 73.4 °F 70% 29.98 in 6.2 mi SE 8.1 mph - N/A   Scattered Clouds
11:00 AM 86.0 °F 93.4 °F 73.4 °F 66% 29.96 in 6.2 mi ESE 9.2 mph - N/A   Scattered Clouds
12:00 PM 85 °F - 72 °F 58% 29.94 in 14 mi East 10.4 mph - -   Partly Cloudy
12:00 PM 86.0 °F 93.4 °F 73.4 °F 66% 29.93 in 6.2 mi East 10.4 mph - N/A   Scattered Clouds
1:00 PM 86.0 °F 91.8 °F 71.6 °F 62% 29.92 in 6.2 mi ESE 8.1 mph - N/A   Partly Cloudy
2:00 PM 86.0 °F 91.8 °F 71.6 °F 62% 29.90 in 6.2 mi ESE 8.1 mph - N/A   Scattered Clouds
3:00 PM 85 °F - 74 °F 63% 29.88 in 16 mi ESE 6.9 mph - -   Mostly Cloudy
3:00 PM 86.0 °F 93.4 °F 73.4 °F 66% 29.88 in 6.2 mi ESE 6.9 mph - N/A   Scattered Clouds
4:00 PM 84.2 °F 89.6 °F 71.6 °F 66% 29.87 in 6.2 mi East 9.2 mph - N/A   Scattered Clouds
5:00 PM 82.4 °F 88.2 °F 73.4 °F 74% 29.86 in 6.2 mi East 6.9 mph - N/A   Partly Cloudy
6:00 PM 82 °F - 74 °F 70% 29.87 in 16 mi East 5.8 mph - -   Scattered Clouds
6:00 PM 82.4 °F 88.2 °F 73.4 °F 74% 29.86 in 6.2 mi East 5.8 mph - N/A   Partly Cloudy
9:00 PM 77 °F - 75 °F 90% 29.90 in 16 mi ESE 4.6 mph - -   Mostly Cloudy